Theta_e
294 294 293 293 293 293 293 293 293 293 293 293 293 293 293 292 292 292 291 290 290 289 289 289 289 288 288 288 288 287 287 287 288 288 289 290 290 290 290 291 291 291 291 291 291 291 291 291 291 291 291 291 291 291 291 291 291 291 291 292 292 292 292 292 293 293 293 293 293 293 293 293 293 293 293 293 294 294 294 294 294 294 294 294 295 295
294 294 294 293 293 293 293 293 293 293 293 293 293 292 292 292 292 291 291 290 290 289 289 289 288 288 288 287 287 287 287 287 288 289 289 290 290 290 290 290 290 290 290 291 290 291 291 291 291 291 291 291 291 291 291 291 291 291 291 291 291 292 292 292 292 292 292 292 292 292 292 292 292 292 293 293 293 293 293 293 293 294 294 294 294 294
293 293 293 293 293 293 293 293 293 293 293 293 292 292 292 292 292 291 291 290 289 289 288 288 288 288 287 287 287 287 287 288 288 289 289 289 289 290 290 290 290 290 290 290 290 290 290 291 291 291 291 291 291 291 291 291 291 291 291 291 291 291 291 291 291 291 291 292 292 292 292 292 292 292 292 292 292 292 293 293 293 293 293 293 294 294
293 292 292 293 293 293 293 293 292 292 292 292 292 292 291 291 291 290 290 289 289 288 288 288 288 288 287 287 287 287 287 288 288 289 289 289 289 289 289 289 290 290 290 290 290 290 290 290 290 290 291 291 291 291 291 291 291 291 291 291 291 291 291 291 291 291 291 291 291 291 291 291 291 291 291 292 292 292 292 292 292 293 293 293 293 293
292 292 292 292 292 292 292 292 292 292 291 291 291 291 290 290 290 289 289 288 288 288 288 288 288 287 287 287 287 287 287 287 288 288 288 288 288 288 288 289 289 289 289 289 290 290 290 290 290 290 290 290 290 290 291 291 291 291 291 291 291 291 291 291 291 291 291 291 291 291 291 291 291 291 291 291 291 292 292 292 292 292 292 292 292 293
292 292 292 292 292 292 292 291 291 291 290 290 290 290 289 289 289 289 288 288 288 288 288 288 287 287 287 287 287 287 287 287 287 287 287 287 287 287 288 288 288 288 289 289 289 289 290 290 290 290 290 290 290 291 291 291 291 291 291 291 291 291 291 291 291 291 291 291 291 291 291 291 291 291 291 291 291 291 291 291 291 291 292 292 292 292
292 292 292 292 292 291 291 291 290 290 290 290 289 289 289 289 288 288 288 288 288 288 288 287 287 287 287 287 287 287 286 286 286 286 286 286 286 286 287 287 288 288 289 289 289 289 290 290 290 290 290 290 290 290 290 290 290 290 290 290 290 290 290 291 291 291 291 291 291 290 290 290 290 290 290 290 290 290 291 291 291 291 291 291 292 292
292 291 291 291 291 291 290 290 290 290 289 289 289 289 289 288 288 288 288 288 288 288 287 287 287 287 287 287 287 286 286 286 286 286 285 285 285 286 287 287 288 288 289 289 289 289 290 290 290 290 290 290 290 290 289 289 289 289 289 289 289 289 290 290 290 290 290 290 290 290 290 290 290 290 290 290 290 290 290 290 290 291 291 291 291 291
291 291 291 291 291 290 290 290 290 289 289 289 289 289 288 288 288 288 288 288 288 288 287 287 287 287 287 287 286 286 286 286 285 285 285 285 286 286 286 287 287 288 288 289 289 289 289 289 289 289 289 289 289 289 289 288 288 288 288 289 289 289 289 289 289 289 289 289 290 290 290 290 290 290 290 290 290 290 290 290 290 290 290 291 291 291
291 291 291 290 290 290 290 290 289 289 289 289 289 288 288 288 288 288 288 288 288 287 287 287 287 287 287 286 286 286 286 285 285 285 285 285 286 286 286 287 287 287 287 288 288 288 288 288 288 288 288 288 288 288 288 288 288 288 288 288 288 288 288 289 289 289 289 289 289 289 289 289 290 290 290 290 290 290 290 290 290 290 290 290 290 291
291 291 290 290 290 290 289 289 289 289 289 289 288 288 288 288 288 288 288 288 288 287 287 287 287 287 286 286 286 286 285 285 285 285 285 285 286 286 286 286 286 286 287 287 287 287 287 287 287 287 287 287 287 287 287 287 287 287 287 287 288 288 288 288 288 289 289 289 289 289 289 289 289 289 289 289 290 289 290 290 290 290 290 290 290 290
290 290 290 290 289 289 289 289 289 289 289 288 288 288 288 288 288 288 288 288 287 287 287 287 286 286 286 286 285 285 285 285 285 284 285 285 286 286 286 286 286 286 286 286 286 286 286 286 286 286 286 286 286 286 286 286 286 286 287 287 287 287 288 288 288 288 289 289 289 289 289 289 289 289 289 289 289 289 289 289 289 289 289 290 290 290
290 289 289 289 289 289 289 289 289 289 289 288 288 288 288 288 288 288 288 287 287 287 287 286 286 286 285 285 285 285 285 284 284 285 285 285 285 286 286 286 286 286 286 286 286 286 286 285 285 285 285 285 285 285 285 285 285 285 286 286 287 287 288 288 288 288 289 289 289 289 289 289 289 289 289 289 289 289 289 289 289 289 289 290 290 290
289 289 289 289 289 289 289 289 289 289 289 289 289 288 288 288 288 287 287 287 287 286 286 286 286 285 285 285 285 284 284 284 284 285 285 285 285 285 285 285 285 285 285 285 285 285 285 285 285 285 285 285 285 285 285 285 285 286 286 287 287 288 288 288 288 289 289 289 289 289 289 289 289 289 289 289 290 290 289 289 289 289 289 289 289 290
289 288 289 289 289 289 289 289 289 289 289 288 288 288 288 287 287 287 287 287 286 286 286 286 285 285 285 285 284 284 284 284 284 285 285 285 285 285 285 285 285 285 285 285 285 285 285 285 285 285 285 285 285 285 285 285 285 286 287 287 287 288 288 288 289 289 289 289 289 289 289 289 289 290 290 290 290 290 290 290 290 289 289 289 289 290
289 289 289 289 289 289 289 288 288 288 288 287 287 287 287 287 287 287 286 286 286 286 286 285 285 285 285 284 284 284 284 284 284 285 285 285 285 285 285 285 285 285 285 285 285 285 285 285 285 285 285 285 285 285 285 285 286 286 287 287 288 288 288 288 288 289 289 289 289 289 289 289 290 290 290 290 290 290 290 290 290 290 290 290 290 290
289 289 288 288 288 288 288 288 288 287 287 287 287 287 287 287 286 286 286 286 285 285 285 285 284 284 284 284 284 284 284 284 284 285 285 285 285 285 285 285 285 285 285 285 285 285 285 285 285 285 285 285 285 285 285 286 286 287 287 287 288 288 288 288 288 289 289 289 289 289 289 289 290 290 290 290 290 290 290 290 290 290 290 290 290 290
288 288 288 288 288 288 288 288 288 287 287 287 287 287 286 286 286 286 286 285 285 285 285 285 284 284 284 284 284 284 284 284 284 285 285 284 285 285 285 284 284 284 284 285 285 285 285 285 285 285 285 285 285 285 285 286 286 287 287 287 288 288 288 288 288 288 288 289 289 289 289 289 289 289 289 289 289 289 289 289 289 289 289 289 289 289
288 288 288 288 288 288 288 287 287 287 287 287 287 286 286 286 286 286 285 285 285 285 285 284 284 284 284 284 284 284 284 284 285 285 285 284 284 284 284 284 284 284 284 284 285 285 285 285 285 285 285 285 285 285 285 286 286 287 287 287 288 288 288 288 288 288 288 288 288 289 289 289 289 289 289 289 289 289 289 289 289 289 289 289 289 289
288 288 288 287 287 287 287 287 287 287 286 286 286 286 286 286 285 285 285 285 285 285 284 284 284 284 284 284 284 284 284 285 285 285 284 284 284 284 284 284 284 284 284 284 285 285 285 285 285 285 284 284 284 285 285 286 286 287 287 287 287 287 287 287 288 288 288 288 288 288 288 289 289 289 289 289 289 289 289 289 289 289 289 289 289 289
287 287 287 287 287 286 286 286 286 286 286 286 286 285 285 285 285 285 285 285 284 284 284 284 284 284 284 284 284 284 285 285 285 285 284 284 284 284 284 284 284 284 284 284 284 284 284 284 284 284 284 284 284 284 285 286 286 286 287 287 287 287 287 287 287 288 288 288 288 288 288 289 289 289 289 289 289 289 289 289 289 289 289 289 289 289
287 287 287 286 286 286 286 286 285 285 285 285 285 285 285 285 285 284 284 284 284 284 284 284 284 284 285 285 285 285 285 285 285 284 284 284 284 284 284 284 284 284 284 284 284 284 284 284 284 284 284 284 284 284 285 285 286 286 286 286 287 287 287 287 287 287 287 287 288 288 288 288 288 288 288 289 289 289 289 289 289 289 289 289 289 289
287 286 286 286 286 286 286 285 285 285 285 285 285 285 285 284 284 284 284 284 284 284 284 284 284 285 285 285 285 285 285 284 284 284 284 283 283 284 284 284 284 284 284 284 284 284 284 284 284 284 284 284 284 284 284 285 285 285 285 286 286 286 287 287 287 287 287 287 287 287 287 287 287 287 288 288 288 288 288 288 288 288 289 289 289 289
286 286 286 286 286 285 285 285 285 285 285 285 285 285 285 284 284 284 284 283 283 283 284 284 284 284 284 284 284 283 283 283 284 284 284 283 283 284 284 284 284 284 284 284 283 283 283 283 284 284 284 284 284 284 284 284 285 285 285 285 285 286 286 286 286 286 286 286 286 286 286 287 287 287 287 287 287 288 288 288 288 288 288 289 289 289
286 286 285 285 285 285 284 284 284 284 285 285 285 285 285 285 284 284 284 283 283 283 283 283 284 284 283 283 283 283 283 283 283 284 283 284 284 284 284 284 283 283 283 283 283 283 283 283 283 284 284 284 284 284 284 284 284 284 284 285 285 285 285 285 285 285 285 286 286 286 286 286 286 287 287 287 287 287 288 288 288 288 288 288 288 288
286 285 285 285 285 285 285 285 285 285 285 285 285 285 285 285 284 284 284 284 284 284 284 284 284 284 283 283 283 283 283 283 283 283 283 283 283 283 283 283 283 283 283 283 283 283 283 283 283 284 284 284 284 284 284 284 284 284 284 284 285 285 284 284 284 284 285 285 285 286 286 286 286 286 287 287 287 287 287 288 288 288 288 288 288 288
285 285 285 285 285 285 285 285 285 285 285 285 285 285 285 285 285 285 285 285 285 285 285 284 284 283 283 282 282 282 283 283 283 283 283 283 283 283 283 283 283 283 283 283 283 283 283 283 283 283 284 284 284 284 284 284 284 284 284 284 284 284 284 284 284 284 284 285 285 285 285 286 286 286 286 286 286 287 287 287 287 287 287 287 287 288
284 284 284 284 284 284 284 284 284 284 285 285 285 285 285 285 286 285 285 285 285 285 285 284 284 283 283 282 282 282 282 283 283 283 283 283 283 283 283 283 283 283 282 282 282 283 283 283 283 283 284 284 284 284 284 284 283 283 283 283 283 283 283 283 283 283 284 284 284 285 285 285 285 285 286 286 286 286 286 286 286 287 287 287 287 287
284 284 283 283 283 283 283 283 283 283 283 284 284 284 284 285 285 285 285 285 285 285 284 284 283 283 283 282 282 282 282 282 283 283 283 282 282 282 282 282 282 282 282 282 282 282 283 283 283 283 284 284 284 284 283 283 283 283 283 283 283 283 283 283 283 283 284 284 284 284 285 285 285 285 285 285 285 285 286 286 286 286 286 286 286 286
283 283 283 283 283 282 282 282 282 282 282 282 283 283 284 284 284 284 284 284 284 284 284 284 283 283 283 283 282 282 282 283 283 282 282 282 282 282 282 282 282 282 282 282 282 282 283 283 283 283 283 283 283 283 283 283 283 283 283 283 283 283 283 283 283 283 283 283 284 284 284 284 284 284 285 285 285 285 285 285 285 285 286 286 286 286
283 283 282 282 282 282 282 282 281 281 281 282 282 282 283 283 283 283 283 284 284 284 284 284 283 283 283 283 282 282 281 282 283 282 282 282 282 282 282 281 281 281 281 281 281 282 282 283 283 283 283 283 283 283 283 282 282 282 282 282 282 282 282 282 282 283 283 283 283 283 283 284 284 284 284 284 284 284 284 285 285 285 285 285 285 285
282 282 281 281 282 282 282 282 282 282 282 282 282 282 282 282 282 283 283 283 283 283 283 283 283 283 283 283 282 282 282 282 282 282 282 282 281 281 281 281 281 281 281 281 281 281 282 282 282 283 282 282 282 282 282 282 282 282 282 282 282 282 282 282 282 282 282 283 283 283 283 283 283 283 283 283 283 284 284 284 285 285 285 285 285 285
281 281 281 281 281 281 281 281 281 282 282 282 282 282 282 282 282 282 283 283 283 283 283 283 283 283 282 282 282 282 282 282 282 282 281 281 281 281 281 281 281 281 281 281 281 281 281 281 281 281 282 282 282 282 282 282 282 282 282 282 282 282 282 282 282 282 282 282 282 282 282 282 283 283 283 283 283 283 283 284 284 284 285 285 285 285
281 281 281 281 281 281 281 281 281 282 282 282 283 283 283 283 283 283 283 283 283 283 283 283 283 282 282 282 282 282 282 281 281 281 281 281 281 281 281 281 280 280 280 280 281 281 281 281 281 281 281 281 281 282 282 282 282 282 282 282 282 282 282 282 282 282 282 282 282 282 282 282 282 282 282 283 283 283 283 283 284 284 285 285 285 286
281 281 281 281 281 281 281 281 282 282 283 283 283 283 283 283 283 283 282 282 282 282 282 282 282 282 282 282 282 282 281 281 281 281 281 281 281 280 280 280 280 280 280 280 280 280 280 280 280 281 281 281 281 281 281 282 282 282 282 282 282 282 282 282 282 282 282 282 282 282 282 282 282 282 282 283 283 283 283 284 284 284 285 285 285 285
281 281 281 281 281 281 281 282 282 282 282 282 282 283 282 282 282 282 282 282 282 282 282 282 282 281 281 281 281 281 281 281 281 281 280 280 280 280 280 280 280 280 280 280 280 280 280 280 280 280 280 281 281 281 281 281 282 282 282 282 282 282 282 282 282 282 282 282 282 282 282 282 282 282 283 283 283 283 283 283 283 284 284 284 284 285
280 281 280 280 280 281 281 282 282 282 282 282 282 282 282 282 282 282 282 282 282 281 281 281 281 281 281 281 281 281 281 280 280 280 280 280 280 280 279 279 279 279 279 279 279 279 280 280 280 280 280 280 281 281 281 281 281 281 281 282 282 282 282 282 282 282 282 282 282 282 282 282 282 282 283 283 283 283 283 283 283 283 283 283 284 284
280 280 280 280 280 281 281 281 282 282 282 282 282 282 282 282 281 281 281 281 281 281 281 281 281 281 281 281 281 281 280 280 280 280 280 280 279 279 279 279 279 279 279 279 279 279 280 280 280 280 280 280 281 281 281 281 281 281 281 282 282 282 282 282 282 282 282 282 282 283 282 282 283 283 283 283 283 283 283 283 283 283 283 283 283 284
280 280 280 280 280 280 281 281 281 281 281 281 281 281 281 281 281 281 281 281 281 281 281 280 280 280 280 280 280 280 280 280 280 280 280 279 279 279 279 279 279 279 279 279 279 279 280 280 280 280 280 280 281 281 281 281 281 281 281 282 282 282 282 282 282 282 283 283 283 283 283 283 283 283 283 283 283 282 283 283 283 283 283 283 283 283
280 280 280 280 280 280 280 280 281 281 280 280 280 280 280 280 280 280 281 280 280 280 280 280 280 280 280 280 280 280 280 280 280 279 279 279 279 279 279 279 279 279 279 279 279 280 280 280 280 280 280 280 281 281 281 281 281 281 282 282 282 282 282 282 283 283 283 283 283 283 283 283 283 283 283 283 283 283 283 283 283 283 283 283 283 283
280 279 279 279 280 280 280 280 280 280 280 280 280 280 280 280 280 280 280 280 279 279 279 279 279 279 279 279 279 279 279 279 279 279 279 279 279 279 279 279 279 279 279 279 279 280 280 280 280 280 280 280 281 281 281 281 281 282 282 282 282 282 282 282 283 283 283 283 283 283 283 283 283 283 283 283 283 283 283 283 283 283 283 283 283 283
279 279 279 279 279 280 280 280 280 280 280 280 279 279 279 279 279 279 279 279 279 279 279 279 279 279 279 279 279 279 279 279 279 279 279 279 279 280 280 280 280 280 280 279 279 280 280 280 280 280 280 281 281 281 281 281 281 282 282 282 282 282 282 283 283 283 283 283 283 283 283 283 283 283 283 283 283 283 283 283 283 283 283 283 283 283
279 279 279 279 279 279 280 280 279 279 279 279 279 279 279 279 279 279 279 279 279 279 279 279 279 279 279 279 279 279 279 279 279 279 279 279 279 280 280 280 280 280 280 280 280 280 280 280 280 280 281 281 281 281 281 281 282 282 282 282 282 282 283 283 283 283 283 283 283 283 283 283 283 283 283 282 282 282 283 283 283 283 283 283 283 283
279 279 279 279 279 279 279 280 279 279 279 279 279 279 279 279 279 279 279 279 279 279 279 279 279 279 279 279 279 279 279 279 279 279 279 279 280 280 280 280 280 280 280 280 280 280 280 280 281 281 281 281 281 281 282 282 282 282 282 282 282 283 283 283 283 283 283 283 283 283 283 283 283 283 282 282 282 282 283 283 283 283 283 283 283 284
279 279 279 279 279 279 279 279 279 279 279 279 279 278 278 279 279 279 279 279 279 279 279 279 279 279 279 279 279 279 279 279 279 279 279 279 280 280 280 280 280 280 280 280 280 280 280 281 281 281 281 281 282 282 282 282 282 282 282 282 282 283 283 283 283 283 283 282 282 283 283 283 283 282 282 282 283 283 283 283 283 283 284 284 284 284
279 279 279 279 279 279 279 279 279 279 279 279 279 278 279 279 279 279 279 279 279 279 279 279 279 279 279 279 279 279 279 279 279 279 279 279 280 280 280 280 280 280 280 280 280 281 281 281 281 281 281 281 281 282 282 282 282 282 282 282 282 282 282 282 282 282 282 282 282 282 283 283 283 283 282 283 283 283 283 283 284 284 284 284 285 285
279 279 279 279 279 279 279 278 278 278 279 279 279 279 279 279 279 279 279 279 280 280 280 280 280 279 279 279 279 279 279 279 279 279 279 280 280 280 280 280 280 280 280 280 281 281 281 281 281 281 281 281 281 281 282 282 282 282 282 282 282 282 282 282 282 282 282 282 282 283 283 283 283 283 283 283 283 283 284 284 284 284 285 285 285 285
279 279 279 279 279 279 279 278 278 279 279 279 279 279 279 279 279 279 280 280 280 280 280 279 279 279 279 279 279 279 279 279 279 280 280 280 280 280 280 280 280 280 280 280 281 281 281 281 281 281 281 281 281 281 281 282 282 282 282 282 282 282 282 282 282 282 283 283 283 283 283 283 283 283 283 283 284 284 284 284 284 284 284 284 284 284
279 278 278 278 278 279 279 279 279 279 279 279 279 279 279 279 279 280 280 280 280 280 279 279 279 279 279 279 279 279 279 279 280 280 280 280 280 280 280 280 280 280 280 281 281 281 281 281 281 281 281 281 281 281 282 282 282 282 282 282 282 282 282 282 283 283 283 283 283 283 283 283 283 283 284 284 284 284 284 284 284 284 283 283 283 283
278 278 278 278 278 278 278 279 279 279 279 279 279 279 279 279 279 279 279 280 280 279 279 279 279 279 279 279 279 279 279 280 280 280 280 280 280 280 280 280 280 280 281 281 281 281 281 281 281 281 282 282 282 282 282 282 282 282 282 282 282 283 283 283 283 283 283 283 283 284 284 284 284 284 284 284 284 284 284 283 283 283 283 283 283 283
278 278 278 278 278 278 278 278 278 279 279 279 279 279 279 279 279 279 279 279 279 279 279 279 279 279 279 279 279 280 280 280 280 280 280 280 280 280 280 280 280 281 281 281 281 281 281 281 281 282 282 282 282 282 282 282 282 282 283 283 283 283 283 283 283 283 283 283 284 284 284 284 284 284 284 284 283 283 283 283 283 283 283 283 283 283
Wind_Speed
13 16 19 21 22 22 22 24 24 24 24 23 21 19 17 16 15 14 12 11 11 11 11 12 12 12 12 12 12 13 13 13 12 11 11 12 12 12 12 12 12 12 12 12 12 12 12 13 13 13 13 13 13 13 13 13 13 13 13 13 13 13 14 14 14 14 14 15 15 15 15 15 16 16 16 16 16 17 17 17 17 17 17 17 18 18
11 13 15 17 18 19 20 22 23 22 22 20 18 16 15 14 13 12 11 11 11 11 11 12 12 11 11 11 11 12 12 11 11 11 12 12 12 12 12 12 12 12 12 12 13 13 13 13 13 13 13 13 13 13 13 13 13 13 13 13 13 14 14 14 14 14 15 15 15 15 15 16 16 16 16 16 17 17 17 17 17 17 17 18 18 18
10 11 12 13 15 16 17 18 18 18 18 16 15 13 12 12 11 10 10 9 9 10 10 11 11 11 11 11 11 11 11 11 11 11 12 12 12 12 12 12 12 12 13 12 12 12 12 12 12 12 12 12 12 12 13 13 13 13 13 13 14 14 14 14 15 15 15 15 15 15 16 16 16 16 17 17 17 17 17 17 18 18 18 18 19 19
12 12 12 12 13 13 14 14 13 13 12 12 11 10 10 9 9 8 8 8 8 9 10 10 11 11 12 12 12 11 11 11 11 11 12 12 12 12 12 12 12 12 12 12 12 12 11 11 11 11 11 12 12 12 13 13 13 13 13 14 14 14 15 15 15 15 15 15 15 16 16 16 16 17 17 17 17 18 18 18 18 18 19 19 19 19
12 13 13 12 12 11 11 10 9 9 9 9 8 8 8 8 8 7 7 8 9 9 10 10 11 12 12 12 12 12 11 11 11 11 11 11 12 12 12 12 12 12 12 11 11 11 11 11 11 11 11 12 12 12 13 13 13 14 14 14 14 15 15 15 15 15 15 15 15 16 16 16 17 17 17 18 18 18 18 19 19 19 19 19 20 20
12 12 12 11 11 10 9 8 8 8 7 7 7 7 7 7 7 8 8 8 9 10 10 11 11 12 12 12 12 11 10 10 10 10 11 12 12 13 13 12 12 12 12 11 11 11 11 11 11 11 11 12 12 12 13 13 14 14 14 14 14 15 15 15 15 15 15 15 15 16 16 16 17 17 17 18 18 18 18 19 19 19 19 20 20 20
11 11 10 9 9 8 8 8 8 8 8 7 7 7 7 7 8 8 9 9 9 10 11 11 11 12 11 11 10 9 9 9 10 11 12 13 14 13 13 12 12 12 11 11 11 11 11 11 11 11 11 12 12 12 13 13 13 14 14 14 14 14 14 14 15 15 15 15 15 16 16 16 17 17 17 18 18 18 18 19 19 19 19 20 20 20
10 10 9 9 8 7 7 8 8 8 8 8 8 8 8 8 9 9 9 9 10 11 11 12 12 11 10 9 8 8 9 10 12 13 14 15 14 13 12 11 11 11 11 11 11 11 10 10 11 11 11 12 12 13 13 13 13 14 14 14 14 14 14 14 14 15 15 15 15 16 16 16 16 17 17 17 18 18 18 18 19 19 19 20 20 20
11 10 9 9 8 8 7 7 7 8 8 8 8 9 9 10 10 10 10 11 11 11 12 11 10 9 8 7 8 8 10 11 13 14 15 14 13 12 11 11 11 11 11 10 10 10 10 10 11 11 12 12 13 13 14 14 14 14 14 13 13 13 14 14 14 14 14 14 15 15 15 16 16 16 17 17 17 17 18 18 19 19 19 20 20 21
10 9 9 8 8 7 7 7 7 7 7 8 9 9 10 10 10 10 11 11 11 11 10 9 9 8 7 8 8 10 11 13 14 15 14 13 12 11 10 10 10 10 10 10 10 10 10 11 11 12 13 13 14 14 14 14 14 14 13 13 13 14 14 14 14 14 14 14 14 15 15 15 16 16 16 17 17 18 18 18 19 19 20 20 21 21
7 7 8 7 7 7 7 7 7 7 8 9 10 10 10 10 10 10 11 11 11 10 8 8 8 8 8 8 9 11 12 14 15 15 14 12 10 9 9 9 10 10 10 11 11 11 12 12 13 14 14 15 15 15 15 14 14 14 14 14 14 14 14 14 14 14 14 14 14 15 15 15 16 16 17 17 18 18 19 19 19 20 21 21 21 22
6 6 6 7 7 7 7 7 7 7 8 9 10 10 11 10 10 10 11 11 10 8 7 7 7 8 8 9 10 11 13 14 15 15 13 11 9 9 9 10 10 11 12 12 13 14 14 15 15 16 16 16 15 15 14 14 13 13 13 13 13 14 14 14 14 14 14 14 15 15 16 16 16 17 17 18 18 19 20 20 20 21 21 22 22 22
5 5 6 6 7 7 7 7 7 8 8 8 9 9 10 10 10 10 10 9 8 7 6 7 7 8 9 9 10 12 13 14 14 14 12 11 10 11 11 12 13 13 14 15 15 16 16 16 16 16 15 15 14 13 12 12 12 12 12 13 13 13 14 14 14 14 15 15 16 16 17 17 18 18 19 19 19 20 20 21 21 21 22 22 22 23
5 6 6 7 7 7 7 7 7 7 7 8 8 8 7 7 7 7 7 7 7 7 7 7 8 8 9 9 10 11 13 13 13 13 12 12 12 12 13 15 16 16 17 17 17 16 15 15 14 14 13 12 11 11 11 11 11 11 12 13 13 14 14 15 15 15 16 16 17 17 18 18 19 19 20 20 20 21 21 21 22 22 22 23 23 23
6 7 7 7 7 7 7 6 6 6 5 5 5 5 5 5 5 5 6 6 7 7 8 9 10 10 9 9 9 10 12 12 12 13 14 14 14 14 15 17 18 19 19 19 18 16 13 13 13 12 11 10 10 10 10 11 11 12 13 14 14 14 15 15 16 16 17 17 18 18 19 19 19 20 20 20 21 21 22 22 22 23 23 23 23 24
7 7 7 6 6 5 4 3 2 2 2 2 3 3 4 4 5 5 6 7 7 8 9 9 10 10 9 9 9 10 11 12 13 14 16 17 17 16 17 19 20 20 20 19 17 15 13 12 11 11 10 10 10 10 11 12 13 13 14 14 15 15 15 16 16 17 17 18 18 18 19 19 20 20 20 20 21 21 22 22 22 23 23 23 24 24
6 5 4 3 3 2 2 2 2 2 3 3 4 5 5 5 6 6 6 7 7 8 8 8 7 7 8 9 10 10 11 12 14 16 17 19 19 19 19 19 20 21 20 18 16 15 13 12 11 11 11 11 11 12 12 13 13 14 14 14 15 15 16 16 16 17 17 18 18 18 19 19 19 20 20 20 21 21 21 22 22 23 23 23 23 24
3 2 2 2 2 2 3 4 4 5 6 6 6 6 7 7 7 7 7 7 7 7 7 7 7 7 7 9 10 11 13 14 15 17 19 20 20 21 20 20 20 20 20 19 17 15 14 13 12 12 12 12 13 13 13 13 14 14 15 15 15 15 16 16 17 17 17 18 18 18 19 19 19 20 20 20 20 21 21 21 22 22 22 23 23 23
1 1 2 2 3 3 4 5 5 6 6 7 7 7 7 7 7 7 7 8 8 7 7 8 8 9 10 11 12 13 14 14 16 18 19 20 21 21 20 19 19 20 20 19 18 16 15 14 13 13 13 13 14 14 14 14 14 15 15 15 15 16 16 16 17 17 17 18 18 18 18 19 19 19 19 20 20 20 20 21 21 22 22 22 23 23
1 2 2 3 3 4 4 4 5 5 6 6 7 7 7 7 7 7 8 8 8 9 9 9 10 10 11 12 13 13 13 14 16 17 18 19 20 20 20 19 18 19 20 19 18 17 16 15 15 14 14 15 15 15 14 14 15 15 15 15 16 16 16 16 17 17 17 17 17 17 18 18 18 19 19 19 19 20 20 21 21 22 22 22 23 23
3 3 3 3 4 4 4 4 4 5 6 6 7 7 7 7 7 7 8 8 9 10 10 10 11 11 12 13 13 14 14 15 16 17 18 18 19 19 19 17 17 18 19 19 18 17 16 16 16 16 16 16 16 16 15 15 15 15 15 16 16 16 16 16 16 16 16 16 17 17 17 18 18 18 18 19 19 20 20 20 21 21 22 22 23 23
5 5 5 5 5 5 5 5 6 6 7 7 7 7 7 7 7 8 9 10 10 11 11 11 12 13 13 14 15 16 16 16 17 17 17 17 18 19 18 16 15 16 18 18 18 17 17 17 17 17 18 18 17 16 16 15 15 15 16 16 16 16 16 15 16 16 16 16 17 17 18 18 18 18 19 19 19 20 20 20 21 21 21 22 22 23
6 6 7 7 7 8 8 8 8 8 9 9 9 9 9 9 9 9 10 10 11 11 12 13 13 14 15 16 17 17 17 17 17 17 16 14 15 17 16 14 15 16 17 18 18 18 18 19 19 19 19 18 17 16 16 16 15 16 16 15 15 15 15 15 16 16 17 17 17 18 18 18 19 19 19 19 19 20 20 20 20 21 21 21 22 22
7 8 8 9 9 10 10 10 10 11 11 11 11 12 12 12 12 11 11 11 11 12 12 13 14 15 16 16 17 17 17 16 15 15 15 14 15 16 15 14 15 17 18 19 19 19 20 20 20 20 19 18 17 16 16 16 15 15 15 14 14 15 15 16 17 17 18 18 18 18 18 18 18 18 18 19 19 19 19 20 20 20 21 21 22 22
8 8 9 9 10 10 10 10 11 11 11 12 12 13 13 13 12 12 12 12 12 12 13 13 14 14 15 14 14 15 15 14 13 13 14 13 14 15 15 15 16 17 19 20 20 20 20 21 21 20 19 18 17 16 15 15 14 14 13 14 14 15 17 18 18 18 18 18 18 18 18 18 18 18 18 18 19 19 19 19 20 20 21 21 22 23
6 7 8 8 8 8 8 9 9 10 10 11 11 12 12 12 12 12 12 13 12 12 12 12 13 13 14 14 14 14 14 12 11 11 13 13 14 15 16 15 15 17 18 20 20 20 20 21 21 20 19 18 16 15 13 13 12 12 13 14 16 17 19 19 19 19 18 18 17 17 17 18 18 18 18 18 19 19 19 19 20 20 21 21 22 22
5 6 6 6 7 7 8 8 9 9 9 10 10 11 11 12 12 12 13 13 12 11 11 10 10 11 13 13 13 13 13 11 11 11 13 14 15 15 16 15 15 16 18 20 20 20 19 20 20 19 18 16 14 12 11 11 11 12 14 16 19 20 20 20 19 18 17 17 17 17 18 18 18 18 18 19 19 19 19 19 20 20 20 21 21 21
5 6 6 7 8 8 9 9 9 10 10 10 10 10 10 11 11 11 11 11 11 10 11 10 10 10 11 11 12 13 14 13 13 13 13 13 13 13 14 14 15 16 18 20 21 21 19 18 17 17 15 13 11 10 10 11 13 15 18 20 21 21 20 19 18 17 17 17 17 18 18 18 18 18 19 19 19 19 19 19 20 20 20 20 20 20
9 9 10 10 10 11 11 11 11 11 11 11 11 10 10 11 12 13 13 13 12 11 12 12 12 12 12 13 14 14 14 13 11 10 9 10 10 12 13 13 14 16 18 20 21 20 17 15 14 12 11 10 10 11 12 15 17 20 21 22 21 20 19 18 17 17 17 17 18 18 18 18 19 19 19 19 19 19 19 19 20 20 20 19 19 19
14 15 15 15 15 14 14 13 13 13 12 11 11 11 10 11 12 13 14 14 13 13 13 14 14 14 13 12 11 10 9 8 5 5 7 9 10 11 13 14 15 16 17 17 15 14 14 14 12 10 9 10 12 14 17 19 21 22 22 22 21 20 19 18 18 18 18 18 18 18 18 19 19 19 19 19 20 19 19 19 19 19 19 19 19 20
18 18 18 17 15 14 13 12 12 11 11 11 10 10 10 11 12 13 13 14 14 14 15 14 14 13 12 10 6 4 5 5 5 6 9 11 11 12 13 14 14 15 14 12 9 7 9 12 12 11 11 14 17 19 20 21 21 21 21 21 21 20 19 19 18 18 18 18 19 19 19 19 20 20 20 20 20 20 20 19 19 19 18 19 19 20
19 18 17 15 14 12 11 11 11 10 10 9 9 9 10 10 11 11 12 13 14 15 15 15 14 14 12 11 8 6 7 8 9 9 10 11 12 13 13 13 13 14 13 11 9 7 5 8 13 17 18 19 20 21 21 20 20 19 20 20 21 21 20 19 19 20 20 20 20 20 20 20 20 21 20 20 20 20 19 19 18 18 18 19 19 20
17 16 15 13 13 12 12 11 11 10 9 9 9 8 9 9 10 11 11 12 12 13 14 14 14 14 13 13 13 13 13 13 12 10 10 11 12 12 13 13 13 13 13 12 11 11 10 12 17 21 22 22 21 20 20 19 19 19 19 19 20 21 21 21 21 22 22 22 22 22 22 22 22 21 21 21 20 20 19 18 18 17 18 19 20 20
16 15 14 13 13 12 11 10 9 9 8 8 8 8 8 8 9 10 10 11 11 11 12 12 13 13 13 13 14 14 14 13 11 10 10 10 11 12 13 13 13 13 13 12 12 12 13 16 17 19 21 22 22 20 19 19 19 19 19 19 20 22 22 23 23 24 24 24 24 24 24 23 23 22 22 21 21 20 19 18 18 18 18 19 20 20
15 14 13 13 12 11 10 9 8 7 7 7 7 7 6 7 7 8 8 9 10 10 10 11 11 12 13 13 13 14 14 13 12 11 11 11 12 13 14 14 13 12 12 12 12 12 13 15 17 17 18 20 22 21 19 18 18 18 19 20 21 22 23 23 24 24 25 24 24 24 24 24 24 23 23 22 22 21 20 19 19 19 20 20 20 20
14 13 12 11 11 10 9 8 6 6 6 6 6 5 5 5 6 7 7 8 9 9 10 11 11 12 13 14 14 15 16 16 15 14 13 13 13 14 14 14 13 12 12 13 13 13 13 15 16 17 17 18 19 20 20 19 19 19 20 21 22 22 23 23 24 24 24 24 24 24 24 24 24 24 23 23 22 21 21 21 21 21 21 20 20 20
13 12 11 10 9 8 8 7 6 5 5 6 6 6 6 6 7 7 8 9 10 11 11 12 13 14 15 16 17 18 18 18 18 17 16 15 15 15 15 15 14 14 13 13 13 14 14 15 16 17 17 16 16 18 19 21 21 21 22 22 22 23 23 23 23 22 22 23 23 24 24 23 23 24 24 23 23 23 23 23 23 22 21 20 20 20
12 11 11 9 8 7 7 7 6 6 6 7 8 8 9 9 10 10 11 12 13 14 15 16 17 18 18 19 19 19 19 19 19 18 17 16 15 16 16 17 16 16 15 14 15 15 15 14 14 14 15 16 17 19 20 21 22 22 23 23 23 23 22 22 21 21 21 22 23 24 24 23 24 24 24 25 25 25 25 25 24 23 22 22 22 21
11 10 9 8 7 7 7 8 8 8 8 9 10 10 11 12 12 13 14 14 15 16 16 16 17 17 17 16 17 17 17 17 17 17 16 15 15 16 17 18 17 17 17 17 17 16 16 15 15 14 15 16 19 20 21 21 21 22 23 24 23 22 21 20 20 20 21 22 23 24 24 24 24 24 25 25 25 24 24 24 24 24 23 24 24 24
10 9 8 7 7 7 7 8 8 8 9 10 11 11 12 13 14 14 14 14 14 13 13 13 13 14 14 14 14 15 15 15 15 15 15 16 16 17 18 19 19 19 18 18 18 18 17 17 17 18 18 18 19 21 21 22 22 22 22 22 22 22 21 21 21 21 22 22 22 23 24 24 24 24 24 24 24 24 24 24 24 24 24 24 24 25
8 8 7 7 7 7 8 8 8 8 9 11 11 12 13 14 14 14 13 13 13 12 12 12 13 14 14 14 14 14 15 15 15 15 16 16 16 16 17 18 19 19 19 18 18 18 18 18 19 19 20 20 21 22 22 23 22 22 21 21 22 23 24 23 22 21 21 21 22 22 23 24 24 24 24 24 24 24 25 25 25 25 25 25 24 24
7 7 7 8 8 8 8 8 8 9 10 11 12 13 13 13 13 13 13 13 13 13 13 13 14 15 15 16 15 15 15 15 15 15 15 15 15 15 16 17 18 18 19 19 18 18 19 19 19 20 20 20 20 21 22 23 23 22 21 21 23 24 25 23 21 20 20 21 22 23 23 24 24 25 25 25 25 25 25 25 25 25 25 24 24 24
8 8 9 9 9 8 8 9 9 10 10 11 12 13 13 12 12 12 13 13 14 14 14 14 14 15 15 16 16 15 14 14 14 14 14 14 14 14 14 15 16 17 18 19 19 19 19 19 20 20 21 21 21 21 23 24 24 23 22 22 22 21 20 22 22 21 21 22 23 24 24 24 25 26 26 26 26 26 25 25 25 24 24 24 24 25
9 9 10 10 9 9 9 9 10 10 11 12 12 13 12 12 12 12 13 13 14 14 14 14 14 15 15 15 15 15 15 14 13 13 13 13 13 13 14 14 15 16 17 19 19 19 19 19 20 20 21 20 21 21 23 24 24 24 23 22 21 21 21 22 23 24 23 23 24 24 24 25 26 27 27 26 26 25 25 25 25 24 24 24 24 24
9 9 9 9 9 9 10 10 11 11 11 12 13 13 12 12 12 12 13 13 14 14 14 14 14 13 13 14 14 15 15 15 14 13 13 13 13 13 13 14 15 16 17 19 20 20 20 20 20 20 20 20 20 21 22 23 23 24 24 23 22 22 23 24 24 24 24 24 25 25 26 26 27 27 26 26 25 25 24 23 23 24 24 23 23 23
9 9 9 9 10 10 11 11 11 12 12 13 13 13 13 12 12 12 13 13 14 14 14 13 13 12 12 13 14 15 15 15 15 14 14 13 13 13 13 14 15 16 17 19 20 21 22 22 22 22 21 21 22 22 23 22 22 23 24 23 22 22 23 24 23 23 23 24 25 26 27 27 26 25 24 24 24 24 23 22 21 21 22 21 21 21
9 9 10 10 11 11 11 12 12 12 13 13 13 13 13 13 13 13 13 13 13 14 13 13 12 12 13 14 14 15 15 16 16 15 15 15 15 14 15 15 15 16 18 19 21 22 23 24 25 24 23 22 22 23 23 23 22 22 23 23 23 22 23 23 24 24 24 24 25 27 28 27 25 24 24 24 23 23 22 21 20 20 19 19 20 21
9 10 10 11 11 12 12 12 12 13 13 14 14 14 14 13 13 13 13 13 13 13 13 13 13 13 14 14 15 15 15 15 16 16 16 16 16 16 16 16 17 18 18 20 21 22 24 25 26 26 25 24 23 23 24 24 23 22 22 22 22 22 23 24 24 24 24 25 26 27 27 25 23 22 23 22 22 22 21 21 20 20 20 21 22 23
10 10 11 11 12 12 12 13 13 13 13 14 14 14 14 14 13 13 13 14 14 14 13 13 13 14 14 14 15 15 15 15 16 16 17 17 17 17 17 17 17 18 19 19 20 21 22 23 24 24 24 25 24 24 25 24 24 23 22 22 22 22 22 23 24 24 23 24 24 25 24 23 22 22 21 21 21 22 22 23 24 24 23 23 23 24
10 11 11 11 12 12 13 13 13 13 13 13 14 14 14 14 14 14 14 14 14 14 14 14 14 14 14 15 15 15 15 16 16 17 17 17 17 17 17 17 18 18 17 18 18 18 18 19 20 20 20 21 23 24 24 24 24 23 22 22 22 22 22 23 23 23 23 22 22 22 22 21 20 20 19 19 21 23 25 25 25 25 24 23 23 23
11 11 11 12 12 12 12 13 13 13 13 13 13 13 14 14 14 14 14 14 14 14 14 15 15 15 15 15 15 15 15 16 16 16 17 17 17 17 17 17 17 16 16 16 16 15 15 14 15 16 18 17 17 19 22 23 23 23 22 22 22 21 21 22 23 23 22 21 21 20 20 20 20 20 19 20 21 23 24 24 25 24 24 24 23 24
Wind_Direction
201 204 209 213 214 214 216 220 222 225 229 234 237 238 237 233 230 229 230 233 238 244 249 254 260 266 273 280 286 290 292 293 295 296 296 296 295 294 292 290 288 286 285 284 283 283 283 284 285 286 287 289 290 292 293 293 293 292 292 291 290 289 288 287 286 285 285 285 286 285 285 285 285 285 284 282 281 282 280 280 280 280 280 280 280 279
193 199 205 212 215 215 218 224 227 228 231 233 234 232 228 225 224 224 227 232 238 245 251 258 264 271 278 283 288 291 292 294 294 295 295 295 294 294 292 291 289 288 286 285 284 284 285 286 287 288 290 292 293 294 295 295 294 293 292 290 289 288 287 287 286 285 285 285 284 284 284 284 284 284 284 284 284 284 283 282 281 281 280 280 280 279
174 183 193 203 208 211 214 221 225 227 227 228 226 224 221 219 221 224 229 236 244 251 258 266 274 281 286 289 291 292 293 293 293 294 294 295 295 294 294 292 291 289 288 287 287 287 288 290 291 293 294 295 296 296 296 295 293 292 291 289 287 286 285 285 284 284 284 283 283 283 283 282 282 282 282 282 282 282 282 282 281 280 280 280 280 279
164 169 180 188 196 203 208 212 214 216 217 218 218 216 215 218 223 230 239 248 257 263 269 276 282 285 287 289 290 292 294 293 292 293 294 295 296 296 296 295 293 292 291 291 291 292 293 294 296 297 297 298 297 297 296 294 292 290 289 287 286 285 284 283 283 282 282 282 282 281 281 281 281 281 281 281 281 281 281 281 281 280 280 279 279 279
163 168 175 179 184 191 197 199 200 203 206 209 210 211 214 221 231 242 253 261 268 273 279 282 283 283 283 285 288 291 294 293 292 293 295 296 297 297 297 297 296 296 296 296 297 297 298 298 298 298 298 298 297 296 295 294 292 290 289 287 286 285 283 283 282 282 281 281 281 281 281 281 281 281 281 281 281 281 281 281 281 281 280 280 280 279
165 171 174 176 178 180 181 184 189 196 203 207 211 214 221 230 240 250 257 264 270 275 279 279 279 278 280 283 287 291 292 290 289 291 293 295 297 298 299 299 298 298 298 299 300 300 300 300 299 298 297 297 296 296 295 295 294 293 292 290 289 288 287 285 284 283 283 282 282 282 281 281 281 281 281 281 281 281 281 281 281 281 281 280 280 280
166 171 174 176 176 175 176 181 187 196 204 211 216 221 229 237 245 251 258 264 268 270 272 273 273 275 279 283 286 288 287 284 283 286 290 293 296 299 300 300 300 300 300 300 300 300 300 299 299 298 298 298 298 298 298 298 297 297 296 294 293 292 291 288 287 286 284 284 283 282 282 282 282 282 282 281 281 281 281 281 281 280 280 280 280 279
163 170 176 179 179 179 183 187 194 201 210 217 223 230 236 242 247 251 256 259 261 264 267 270 273 276 279 281 282 281 280 281 284 288 293 297 299 300 301 302 302 302 302 301 301 301 300 300 299 299 299 300 300 300 300 300 299 298 297 296 294 293 291 289 288 286 285 284 284 283 283 282 282 281 281 281 281 281 280 280 280 280 280 279 279 279
162 169 178 183 185 188 193 200 205 210 217 224 231 236 240 243 246 249 251 252 256 263 269 274 277 279 279 278 277 277 280 284 289 295 300 303 304 304 304 303 303 302 303 303 304 303 302 301 301 301 301 302 302 303 302 301 300 299 298 297 296 295 294 293 291 289 287 286 285 284 283 283 282 282 281 281 280 280 280 279 279 279 279 279 279 279
169 173 180 186 191 196 202 213 217 220 225 232 238 242 244 244 244 246 249 254 261 268 273 277 279 280 279 277 278 281 285 289 295 300 303 303 303 302 301 300 300 301 304 306 306 305 304 303 302 302 303 304 304 304 303 302 301 300 299 299 299 298 297 295 293 291 289 288 286 285 284 283 282 282 281 281 280 280 279 279 279 279 279 279 279 279
180 185 189 192 199 207 217 228 232 233 233 236 238 240 244 246 248 250 254 262 270 275 276 276 276 277 279 282 285 288 291 295 300 302 303 301 299 298 297 296 296 296 298 299 299 299 299 299 300 301 302 302 302 302 302 301 300 299 300 300 299 299 297 296 294 292 290 288 287 286 285 284 283 282 281 281 280 280 280 279 279 279 279 279 279 279
195 200 202 203 206 214 227 238 242 241 236 233 232 234 238 247 254 259 263 269 275 278 276 273 273 276 281 288 293 296 298 301 304 305 305 303 300 299 298 295 294 293 293 292 290 290 292 293 295 297 299 299 300 300 301 300 299 299 299 299 298 298 297 295 293 291 289 288 287 286 285 284 283 282 282 281 280 280 280 280 279 279 279 279 279 279
211 212 214 217 219 224 231 237 238 236 233 231 232 236 242 250 256 261 265 271 276 278 276 274 275 279 285 290 297 302 304 306 307 307 307 306 305 303 301 299 297 297 296 295 294 293 294 294 296 297 299 300 302 302 302 302 301 301 301 300 298 297 295 293 292 290 289 287 286 285 284 284 283 282 281 281 280 280 279 279 279 279 279 279 279 279
225 227 231 233 235 235 236 236 237 236 235 236 240 244 249 252 253 256 263 271 276 279 280 281 283 287 290 294 300 304 308 309 309 308 307 306 305 304 303 303 302 302 303 302 302 301 302 303 303 303 304 305 305 306 306 305 305 304 302 299 297 296 294 293 291 290 288 287 285 284 284 283 282 281 281 280 280 279 279 279 279 279 279 279 279 279
236 235 234 233 233 234 235 238 241 243 241 238 239 241 244 248 254 262 271 276 280 283 286 287 290 293 293 296 302 308 311 311 311 311 310 307 305 304 306 307 307 307 308 308 308 309 311 311 310 310 310 309 308 308 308 308 307 303 299 298 296 295 293 292 291 289 288 286 285 284 283 282 281 280 280 279 278 278 278 279 279 279 280 279 279 279
243 238 230 227 227 227 227 234 242 244 242 240 244 251 258 266 271 276 280 285 287 290 292 295 299 299 296 297 303 311 314 314 314 314 313 310 308 308 310 310 310 310 311 311 312 314 317 316 315 313 312 311 311 311 310 307 303 299 297 296 295 294 294 292 291 289 288 287 285 284 283 282 282 281 280 280 279 279 279 279 279 279 279 279 279 279
244 238 232 232 231 232 244 265 285 293 289 285 281 280 279 280 281 282 284 288 292 294 293 296 300 302 299 302 306 312 317 318 317 316 313 310 308 309 311 310 309 308 310 311 313 316 320 319 317 315 313 312 312 311 307 302 298 296 295 295 295 295 294 293 292 291 290 288 287 287 286 285 284 284 284 282 282 281 280 280 279 279 279 279 278 278
238 247 270 289 294 291 289 291 292 293 292 291 288 285 283 281 281 282 284 288 292 294 294 294 295 295 298 303 307 312 317 318 317 315 311 307 306 307 309 309 307 306 308 310 314 318 320 319 317 315 314 313 311 307 301 296 294 294 295 296 296 296 296 295 294 293 292 291 290 289 288 288 287 287 286 285 284 283 282 281 281 280 280 279 279 279
248 286 313 322 315 305 301 299 297 295 293 291 287 283 280 278 278 279 282 285 289 293 294 295 295 295 297 299 305 310 314 314 313 311 308 304 303 304 307 307 305 304 305 308 312 316 318 317 315 314 312 311 307 302 296 294 293 294 295 296 298 298 298 298 297 296 295 294 293 292 291 289 289 288 287 286 285 284 283 283 282 282 281 281 280 280
313 318 325 327 323 319 314 304 298 294 291 287 283 281 278 276 275 276 279 283 287 291 293 294 293 294 295 298 302 305 307 307 307 306 303 300 300 301 303 304 303 302 302 304 309 313 314 313 311 310 308 306 303 299 296 295 295 295 296 298 300 301 301 301 300 299 298 297 296 295 294 292 291 290 289 288 287 286 285 284 283 283 282 282 281 281
317 319 315 310 314 319 322 310 300 294 290 288 285 283 279 278 278 280 282 286 290 293 294 292 290 290 292 294 295 295 296 298 301 301 299 297 296 297 299 301 300 299 298 300 305 308 308 307 306 305 303 302 301 299 296 296 296 297 298 300 301 303 303 304 304 303 303 301 300 299 298 296 295 294 292 292 290 289 288 287 286 285 284 283 283 282
302 301 298 296 298 302 303 302 299 297 294 294 293 292 288 287 287 288 289 291 293 294 293 291 290 291 291 290 289 289 289 291 294 295 294 292 291 292 296 299 298 296 294 297 301 303 303 302 301 301 301 302 301 300 298 298 298 299 301 302 304 305 306 307 307 307 306 305 303 302 301 299 298 297 296 294 293 292 290 290 289 288 287 286 285 284
295 292 292 292 291 290 291 292 294 294 294 295 294 293 293 292 291 290 291 293 294 294 293 293 293 292 291 289 289 289 288 289 290 289 286 283 284 288 294 298 297 295 293 295 299 301 302 301 301 302 303 304 304 303 302 301 301 302 303 304 306 307 308 309 309 308 307 306 304 303 302 301 299 298 296 295 294 292 292 291 290 289 288 287 286 285
292 292 292 292 291 290 290 291 292 293 293 293 293 293 294 294 294 294 294 294 294 294 294 293 292 290 288 288 289 291 291 291 289 284 278 275 279 285 292 297 298 297 296 298 301 303 304 303 304 305 307 308 308 306 305 304 303 304 305 306 307 309 309 309 309 308 308 306 305 303 302 301 300 299 297 296 295 294 293 292 291 290 290 289 287 285
294 295 296 296 296 295 295 295 295 294 293 293 292 292 292 292 292 291 291 291 291 292 293 292 289 286 285 288 290 292 292 292 287 279 273 275 280 286 292 298 300 300 299 301 304 306 306 306 307 308 310 311 311 310 308 306 305 305 306 307 308 309 309 309 309 309 308 308 307 306 305 304 303 301 300 299 297 296 295 294 294 293 292 291 289 286
309 307 307 306 305 303 301 298 295 292 290 289 288 288 288 287 285 283 282 282 283 283 283 281 279 279 282 285 286 288 289 289 284 278 275 280 286 290 294 299 302 302 302 304 307 309 308 307 307 308 310 312 313 312 310 307 305 304 304 305 307 308 309 310 311 311 310 310 309 308 307 307 305 304 302 301 299 298 298 297 296 295 295 294 292 290
324 322 320 316 312 308 305 301 297 293 290 286 285 285 285 285 283 278 273 273 273 272 267 267 271 277 280 281 282 284 287 287 284 281 280 283 286 290 294 301 305 307 307 308 309 309 307 305 305 307 310 313 315 314 309 305 302 301 302 304 307 309 310 312 313 313 312 311 310 309 308 307 306 305 303 302 301 300 299 298 297 297 297 296 295 293
300 303 303 303 304 303 302 301 297 295 293 290 286 284 283 283 281 276 269 270 271 270 266 267 271 276 278 279 281 284 288 287 285 283 283 284 284 287 295 305 312 315 316 314 312 310 307 304 305 308 313 316 315 310 304 300 299 300 303 306 309 311 313 314 314 313 312 310 309 309 308 307 306 305 304 303 302 301 300 299 299 298 298 297 295 293
282 283 283 285 288 290 290 288 286 286 288 289 287 284 280 277 275 274 273 274 275 273 270 269 270 272 275 279 284 287 288 285 283 284 287 292 292 293 301 311 317 320 323 320 317 314 310 307 309 312 314 313 309 303 300 300 301 303 306 309 311 313 314 314 314 312 310 309 308 308 307 307 306 305 304 303 302 301 300 299 299 299 298 297 294 293
287 287 286 285 286 286 285 283 282 282 282 285 285 282 277 271 269 270 271 272 273 272 268 268 268 270 274 282 288 290 287 282 281 291 301 310 308 305 309 314 317 321 326 326 323 317 312 310 310 310 309 306 303 301 302 303 305 307 310 312 313 314 314 314 313 311 309 307 307 307 306 306 305 305 304 304 303 302 301 300 300 300 299 297 294 292
295 295 295 295 294 293 292 291 290 288 286 285 283 279 274 269 267 267 268 268 269 268 267 267 268 269 272 278 283 285 281 279 290 307 313 315 310 306 311 313 315 318 324 327 326 318 313 311 309 307 306 304 304 304 305 307 309 310 312 313 313 314 314 313 312 310 308 307 306 306 306 305 305 305 305 305 304 303 302 302 301 300 298 297 295 293
298 299 300 301 301 300 300 299 298 297 294 291 285 279 274 270 268 267 267 267 267 267 268 268 268 269 269 268 266 266 272 277 289 303 310 310 306 304 307 309 310 312 316 315 308 298 300 304 304 304 305 305 305 306 307 308 309 310 311 311 312 312 313 313 311 309 308 307 307 306 306 306 306 307 307 307 306 305 303 303 302 300 298 296 294 292
299 299 299 299 299 299 298 298 298 298 298 295 290 284 277 272 270 269 269 269 270 270 271 270 270 270 269 267 266 268 271 276 283 293 301 303 301 301 303 305 305 307 308 305 296 286 281 287 296 302 304 305 305 305 306 307 308 309 310 310 310 311 311 311 310 308 307 307 307 307 307 307 308 308 308 308 308 306 304 303 301 299 296 295 293 292
297 297 296 296 296 296 297 298 299 301 301 298 293 286 279 273 269 267 268 269 269 270 270 271 271 271 271 270 270 271 273 276 280 286 293 297 298 299 300 300 301 302 303 301 297 290 284 285 291 297 302 303 303 303 304 306 307 308 309 309 308 308 309 309 308 308 307 307 307 307 308 309 310 310 309 309 308 307 304 303 301 298 295 294 293 293
293 293 294 296 298 300 301 303 306 307 306 303 298 290 281 273 267 264 263 262 262 263 263 263 265 268 270 272 274 275 276 277 280 285 290 293 295 296 297 295 296 298 299 297 296 294 291 289 291 294 298 301 302 302 303 304 306 307 307 306 306 305 306 306 307 306 306 306 306 306 307 309 309 309 308 308 308 306 304 302 300 297 295 293 292 291
290 291 294 298 301 303 306 310 312 312 309 307 306 300 286 273 266 262 260 259 258 258 259 259 261 264 266 270 273 275 277 279 282 285 287 289 290 291 291 290 290 292 293 292 292 292 292 292 292 293 294 296 299 301 303 305 307 307 306 305 305 304 304 304 304 305 305 305 305 305 306 306 306 306 306 306 305 304 302 301 300 299 297 295 292 289
290 293 296 300 302 304 304 308 310 307 302 300 301 299 290 281 275 271 269 268 269 269 268 268 268 268 268 269 271 273 276 278 280 282 283 283 283 284 284 284 285 285 284 284 286 288 290 291 293 293 292 291 293 297 302 306 307 307 305 305 305 304 303 303 304 304 304 303 303 303 303 303 303 302 302 303 303 302 302 302 302 302 301 298 295 291
291 294 297 300 302 300 295 297 300 298 294 294 296 296 294 291 288 286 284 283 282 282 282 280 279 277 275 273 272 272 274 276 278 279 281 281 281 280 278 279 280 279 277 277 279 282 285 287 289 292 292 290 290 293 297 302 304 304 304 304 304 303 302 302 303 304 303 301 300 300 300 300 300 300 301 301 302 302 302 303 304 304 302 300 297 294
293 295 297 298 297 295 292 292 294 295 294 294 295 296 296 295 294 292 291 290 290 290 291 291 290 288 285 281 279 278 278 280 282 284 286 286 284 281 277 276 276 277 276 275 275 275 276 277 280 284 288 291 293 294 296 297 298 300 302 304 303 302 301 302 302 301 300 299 298 298 298 299 299 300 300 300 300 300 299 300 301 301 300 299 297 295
295 294 292 292 292 293 292 293 294 295 295 295 295 296 297 296 295 293 294 296 298 300 301 302 301 300 298 296 293 291 290 290 291 292 291 289 286 283 280 277 276 276 277 276 274 272 271 271 274 277 281 284 289 292 294 294 294 296 300 301 301 300 300 301 300 299 297 297 296 297 297 299 299 299 298 298 297 296 295 295 296 296 296 295 293 293
294 291 288 289 293 295 295 295 295 294 294 297 298 300 301 302 304 305 307 308 309 310 309 309 308 306 303 300 298 296 295 294 293 292 290 288 287 285 282 280 278 277 277 276 274 271 270 270 272 275 277 279 283 286 288 289 291 293 294 294 294 295 297 298 297 297 296 296 296 296 297 297 297 297 296 295 294 294 293 293 293 293 294 292 289 288
289 287 288 291 294 297 297 295 294 294 294 298 302 306 308 309 312 313 314 312 311 311 311 311 309 308 305 302 299 297 295 294 294 292 291 290 288 286 284 283 281 279 277 275 272 270 270 270 271 273 275 277 280 283 285 287 288 289 289 289 291 294 297 296 296 296 296 296 296 296 295 295 295 295 295 294 293 293 292 291 290 289 288 288 286 283
287 287 289 293 295 296 296 294 293 296 300 304 306 308 309 310 311 312 311 309 308 309 311 311 310 307 303 302 301 301 300 297 296 295 293 292 290 288 286 284 283 282 279 275 272 272 272 272 270 270 272 274 276 279 282 285 287 288 287 287 290 293 295 295 296 297 296 295 294 294 294 294 294 294 294 293 292 292 291 289 287 285 284 283 282 280
287 289 291 293 295 295 294 294 296 299 303 305 306 306 307 308 310 311 309 307 307 309 310 310 309 306 301 300 301 303 303 302 299 297 295 293 292 289 287 286 285 284 282 275 272 272 274 274 273 273 274 274 274 275 278 282 285 286 286 286 286 285 285 289 293 295 295 294 293 293 293 293 294 294 293 292 291 290 289 288 286 284 283 282 281 280
290 292 293 294 296 297 296 297 299 301 302 302 303 304 305 308 310 310 307 306 307 308 308 309 308 305 301 301 303 305 305 305 303 300 297 295 293 290 288 286 285 284 282 277 273 271 272 273 275 277 278 276 274 273 275 279 282 284 285 285 285 283 282 285 288 290 291 291 292 292 293 294 294 293 292 291 290 289 288 286 284 283 283 282 281 279
291 292 292 293 294 295 296 297 299 300 300 300 301 302 304 308 310 309 307 306 305 306 306 308 306 302 300 301 303 305 305 305 304 302 300 298 296 294 292 289 286 284 281 278 276 273 270 270 273 277 279 279 277 275 274 276 278 281 284 285 285 285 285 285 285 286 286 287 289 291 293 294 293 291 288 288 289 288 286 284 282 282 282 282 281 280
288 289 290 291 293 294 295 297 298 299 298 298 299 301 304 307 308 307 305 304 303 304 305 305 302 298 297 298 300 301 302 302 302 302 302 301 301 299 297 294 291 287 283 280 277 274 272 271 271 272 274 276 277 277 277 276 276 278 281 283 285 285 284 284 285 285 285 285 286 288 290 292 291 288 286 286 286 286 286 285 284 284 284 284 284 284
286 287 288 290 293 294 295 296 297 297 297 296 298 301 303 305 305 303 301 302 301 301 301 300 298 296 294 293 294 295 295 296 297 299 299 300 300 300 299 297 294 291 287 284 281 278 275 274 272 270 268 268 271 274 277 277 276 276 278 280 282 282 282 283 284 285 285 284 284 286 287 286 284 283 284 285 286 286 287 288 288 288 288 287 286 285
284 286 288 291 293 295 295 296 296 296 295 296 298 300 302 303 302 299 297 298 297 296 295 294 293 292 291 290 291 292 292 292 293 295 296 297 299 299 299 297 295 293 290 287 285 283 280 278 275 270 266 263 263 267 272 275 276 276 277 277 278 278 279 281 284 286 286 285 285 286 286 283 281 280 281 283 286 288 291 292 292 291 289 287 285 283
286 287 289 291 292 293 294 295 295 296 296 297 298 300 302 302 301 299 297 296 294 292 290 289 288 288 288 289 289 290 290 290 291 292 293 295 297 297 296 296 295 294 293 292 290 288 286 284 282 278 272 265 261 261 265 270 274 276 277 276 276 277 278 281 284 286 287 287 287 288 288 286 285 284 284 286 288 291 292 292 291 290 288 287 285 283
288 289 289 290 291 291 293 294 295 295 295 296 297 299 300 301 301 300 298 296 293 290 287 286 285 284 285 286 287 287 288 288 288 289 290 293 294 294 293 293 293 293 293 294 295 295 294 293 292 290 285 275 266 261 262 267 272 276 278 278 279 279 280 282 284 287 288 289 289 290 291 291 291 290 289 288 289 290 290 290 289 289 288 288 286 284